Regional Weather Roundup
Issued by NWS

Home | Current Version | Previous Version | Text Only | Print | Product List | Glossary On
Versions: 1 2 3 4 5 6 7 8 9 10 11 12 13 14 15 16 17 18 19 20 21 22 23 24 25 26 27 28 29 30 31 32 33 34 35 36 37 38 39 40 41 42 43 44 45 46 47 48 49 50
000
ASHW40 PHFO 242243
RWRHI

WEATHER ROUNDUP FOR HAWAII
NATIONAL WEATHER SERVICE HONOLULU HI
1200 PM HST SAT SEP 24 2016

THIS IS AN AUTOMATED REPORT THAT HAS NOT BEEN QUALITY CONTROLLED.

NOTE..."FAIR" INDICATES FEW OR NO CLOUDS BELOW 12,000 FEET WITH NO
SIGNIFICANT WEATHER AND/OR OBSTRUCTIONS TO VISIBILITY.

* - THESE SITES REPORT LIMITED FIELDS

HIZ001>004-242300-
KAUAI-NIIHAU-

CITY           SKY/WX    TMP DP  RH WIND       PRES   REMARKS
LIHUE APT      MOSUNNY   86  72  62 NE12      30.04F HX  92
PORT ALLEN*      N/A     90 N/A N/A E20G25      N/A
POIPU*           N/A     86 N/A N/A E9G17       N/A
PRINCEVILLE*     N/A     82 N/A N/A E10G21      N/A
KOKOLE POINT*    N/A     88 N/A N/A MISG        N/A
MOLOAA DAIRY*    N/A     84  73  70 E9G16       N/A  HX  91
WAIMEA HTS*      N/A     88  68  51 E5G14       N/A  HX  91
PUU OPAE*        N/A     81  68  65 W7G15       N/A
PUU LUA*       NOT AVBL
MAKAHA RIDGE*    N/A     77  70  78 W2          N/A
$$

HIZ005>011-242300-
OAHU-

CITY           SKY/WX    TMP DP  RH WIND       PRES   REMARKS
HONOLULU       MOSUNNY   86  66  51 NE12      29.99F
KALAELOA         N/A    N/A N/A N/A MISG      30.01F
KANEOHE MCB    CLOUDY    81  71  71 NE9       29.99F
WHEELER FIELD  FAIR      84  69  61 E8        30.02F
BELLOWS*         N/A    N/A N/A N/A NE12        N/A
KAHUKU*          N/A    N/A N/A N/A VRB1        N/A
WHEELER*         N/A    N/A N/A N/A E8G16       N/A
WAIANAE HARBOR   N/A    N/A N/A N/A W10         N/A
DILLINGHAM*      N/A     91  68  46 MISG        N/A  HX  95
KAHUKU TRN*      N/A     75  63  64 NW6G20      N/A
KAWAILOA*        N/A     81  64  57 E12         N/A
KII*             N/A     84  73  70 E13G18      N/A  HX  91
MAKUA RANGE*     N/A     90  73  58 E5G10       N/A  HX  98
OAHU FOREST NW   N/A     79  68  69 E16G28      N/A
SCHOFIELD BRK*   N/A     84  68  58 MISG        N/A
SCHOFIELD S*   NOT AVBL
WAIANAE VLY*     N/A     91  68  46 S5G14       N/A  HX  95
KUAOKALA*        N/A     81  68  65 E16G24      N/A
HONOULIUULI*   NOT AVBL
MOKUOLOE IS*   NOT AVBL
PALEHUA*         N/A     81  70  69 NE3G12      N/A
WAIAWA PHB*    NOT AVBL
$$

HIZ012>013-242300-
MOLOKAI-

CITY           SKY/WX    TMP DP  RH WIND       PRES   REMARKS
MOLOKAI AIRPT  MOSUNNY   86  70  58 N10G17    30.00F HX  90
KALAUPAPA      NOT AVBL
MAKAPULAPAI*     N/A     84  73  70 E18G26      N/A  HX  91
MOLOKAI 1*       N/A     79  66  65 NW3         N/A
PUU ALII*        N/A     70  65  85 NE3G10      N/A
$$

HIZ016-242300-
KAHOOLAWE-

CITY           SKY/WX    TMP DP  RH WIND       PRES   REMARKS
KAHOOLAWE*       N/A     79 N/A N/A E1          N/A
HAKIOAWA*        N/A     81  71  71 MISG      30.42F
HONOKANAIA*      N/A     88  71  57 E18G29    29.94F HX  94
KANELOA*         N/A     82  72  69 E20G35    30.08F
KEALIALALO*    NOT AVBL
LUA MAKIKA*    NOT AVBL
$$

HIZ014>015-242300-
LANAI-

CITY           SKY/WX    TMP DP  RH WIND       PRES   REMARKS
LANAI CITY     CLOUDY    78  72  81 VRB3      30.06F
LANAI 1*       NOT AVBL
$$

HIZ017>028-242300-
MAUI-

CITY           SKY/WX    TMP DP  RH WIND       PRES   REMARKS
KAHULUI        MOSUNNY   90  71  53 NE14G23   29.98F HX  96
KAPALUA-W MAUI MOSUNNY   86  66  51 NE12G24   30.00
HANA AIRPORT     N/A     84  75  74 E10       30.04F HX  92
HANA*            N/A     82 N/A N/A E8G15       N/A
HALEAKALA SUMM   N/A     54  48  82 E8          N/A
MAALAEA BAY*     N/A     88 N/A N/A N18G28      N/A
HALEAKALA*     NOT AVBL
KAUPO GAP*       N/A     79  72  78 S3G12       N/A
KULA 1*          N/A     66  61  84 W3G9        N/A
$$

HIZ023>026-242300-
BIG ISLAND OF HAWAII COAST AND LOWER SLOPES-

CITY           SKY/WX    TMP DP  RH WIND       PRES   REMARKS
KAILUA KONA    SUNNY     87  75  67 S14       29.96F HX  96
HILO           MOSUNNY   82  72  71 E9        30.02F
HONOKAA*         N/A     81 N/A N/A VRB1        N/A
KAWAIHAE MWT*    N/A     86 N/A N/A W12         N/A
KAWAIHAE*        N/A     82 N/A N/A W12       29.96F
SOUTH POINT*     N/A     77 N/A N/A N15G22      N/A
UPOLU AIRPORT* NOT AVBL
KAMUELA*       PTCLDY    81  66  61 N14       30.11F
HAKALAU*         N/A     67  62  85 E5          N/A
KALOKO-HONOKO*   N/A     88  73  62 SW10      29.95F HX  96
PALI 2*          N/A     77  64  65 SW12G18     N/A
KEALAKOMO*       N/A     84  70  61 E18G26      N/A
KAUPULEHU*       N/A     90  72  55 SW15G26     N/A  HX  96
KAPAPALA*        N/A     76  71  86 E6G16       N/A
LOWER KAHUKU*    N/A     70  66  88 E2G9        N/A
PUHE CS*         N/A     88  73  62 SW3G10      N/A  HX  96
PUHO CS*         N/A     88  70  54 SW3G9       N/A  HX  93
PTA KEAMUKU*     N/A     79  64  61 CALM        N/A
WAIKOLOA*        N/A     84  72  65 W12G18      N/A
$$

HIZ027>028-242300-
BIG ISLAND OF HAWAII INTERIOR AND SUMMMITS-

CITY           SKY/WX    TMP DP  RH WIND       PRES   REMARKS
BRADSHAW FIELD PTSUNNY   72  59  64 W13G20    30.35F
MK VISITOR CEN   N/A     55  48  76 S8          N/A
MAUNA KEA*       N/A     39  37  93 CALM        N/A
MAUNA LOA*       N/A     52  41  66 MISG        N/A
MAUNA LOA 1*   NOT AVBL
PTA KIPUKA*      N/A     73  59  60 NW6G15      N/A
PTA RANGE 17*    N/A     57  48  72 W12G18      N/A
PTA WEST*        N/A     75  61  60 NW12G20     N/A
NENE CABIN*      N/A     61  57  88 E6G13       N/A
AHUMOA*          N/A     63  62  96 NW6         N/A
PTA PORTABLE*  NOT AVBL
PUU MALI*        N/A     66  63  88 NE5G10      N/A
$$

HIC003-242300-
NORTHWEST ISLANDS-

CITY           SKY/WX    TMP DP  RH WIND       PRES   REMARKS
MIDWAY ISLAND  CLOUDY    81  72  74 NE9       30.17F
MIDWAY NOS*      N/A     79 N/A N/A MISG      30.16F
FRENCH FRIGATE NOT AVBL
$$

PHZ110>124-180-242300-
BUOY REPORTS

STATION/POSITION TIME  TEMP    WIND        PRES    WAVE   SWELL
                       AIR SEA DIR/SP/G            HT/PER HT/DIR
                 (UTC) (F)     (DEG/KT/KT) (MB)    (FT/S) (FT/D)
BUOY 51001       NOT AVBL
BUOY 51101       2150   80 80  120/  8/ 10 1017.4F   5/ 8   5/ 80
BUOY 51100       NOT AVBL
BUOY 51002       NOT AVBL
BUOY 51003       2150   82 82   80/ 14/ 16 1014.8F   6/ 8   5/ 90
BUOY 51004       2150   81 81   70/ 16/ 19 1014.5F   7/ 8   3/160
BARBERS PT BUOY  NOT AVBL
WAIMEA BAY BUOY  2204      82                N/A     3/11   2/330
KAILUA BAY BUOY  2204      81                N/A     5/ 8   2/ 30
LANAI BUOY       2215      83                N/A     3/14   2/190
BARBERS PT 2     NOT AVBL
PAUWELA MAUI     2109      80                N/A     6/12   2/340
HILO             2112      81                N/A     5/ 8   2/340
KANEOHE BAY BUOY 2206      80                N/A     5/ 8   2/ 30
HANALEI KAUAI    NOT AVBL
KAHULUI HARBOR   2200   82 81   50/ 14/ 19 1015.3F
HONOLULU HARBOR  2200   85 82   90/  4/  7 1016.4F
KILO NALU        NOT AVBL
HILO HARBOR      2200   81 80   50/ 10/ 14 1016.1F
MOKUOLOE         2100   83 82   90/  6/  9 1016.9F
NAWILIWILI       2200   81 82   80/  9/ 12 1016.8F
WHOTS BUOY       NOT AVBL
BUOY 51028       NOT AVBL
$$

......................KEY........................................
  SKY/WX - SKY CONDITIONS/PRESENT WEATHER
  TMP    - TEMPERATURE IN FAHRENHEIT
  DWPT   - DEWPOINT IN FAHRENHEIT
  RH     - RELATIVE HUMIDITY IN PERCENT
  WIND   - DIRECTION AND SPEED /MPH FOR ISLANDS...KTS FOR BUOYS/
  PRES   - MEAN SEA LEVEL PRESSURE IN INCHES OF HG
  VSB    - VISIBILITY IN MILES
  HX     - HEAT INDEX
  WCI    - WIND CHILL INDEX
  VRB    - VARIABLE WIND DIRECTION
  N/A    - NOT AVAILABLE




USA.gov is the U.S. government's official web portal to all federal, state and local government web resources and services.